Location: Lake of the Woods (North-East)
(49.6672°N, 94.8656°W)
Time: 15:51:27
(UTC-05:00)

Daily predictions for brighter satellites

Satellite Brightness Start Highest point End
(mag) Time Altitude Azimuth Time Altitude Azimuth Time Altitude Azimuth
NOSS 0 Rocket 4.1 20:50:33 10° S 20:56:30 52° ESE 21:02:31 10° NE
Meteor 2-2 Rocket 4.4 20:51:23 10° S 20:57:17 88° E 21:03:19 10° NNE
SL-8 R/B 4.4 20:54:37 10° SW 20:58:56 34° SSE 21:03:16 10° E
Cosmos 1151 Rocket 3.1 21:04:51 10° S 21:09:01 55° E 21:13:13 10° NNE
Cosmos 1933 Rocket 3.5 21:05:35 10° N 21:10:00 77° ENE 21:14:21 10° SSE
Cosmos 1943 Rocket 4.2 21:08:26 10° N 21:11:45 16° NNE 21:15:05 10° ENE
Cosmos 1371 Rocket 4.5 21:08:29 10° S 21:13:26 40° ESE 21:18:25 10° NE
ARGOS 3.7 21:10:58 10° SE 21:15:56 41° ENE 21:20:57 10° N
Aureole 2 3.9 21:15:10 10° SSW 21:18:07 87° ESE 21:21:08 10° NNE
H-2A R/B 2.8 21:14:40 10° SE 21:19:07 33° ENE 21:23:32 10° N
Envisat 4.4 21:14:30 10° SSW 21:19:15 39° W 21:24:02 10° NNW
Meteor 2-10 Rocket 4.2 21:14:51 10° SSE 21:20:12 41° E 21:25:37 10° NNE
SL-16 R/B 3.0 21:15:38 10° SSE 21:20:23 29° ESE 21:25:09 10° NE
Cosmos 1408 2.6 21:16:44 10° N 21:20:25 84° W 21:24:06 10° S
Cosmos 2341 Rocket 4.1 21:14:31 10° S 21:20:53 86° W 21:27:15 10° N
Lacrosse 5 2.8 21:16:37 10° WNW 21:21:27 42° NNE 21:26:15 10° E
Cosmos 2218 Rocket 4.2 21:16:10 10° S 21:22:23 59° E 21:28:41 10° NNE
Resurs 1-3 4.2 21:20:47 10° S 21:25:07 59° W 21:29:28 10° NNW
USA 234 4.1 21:18:55 10° ENE 21:25:08 47° N 21:31:20 10° WNW
SPOT 5 4.1 21:26:17 12° ESE 21:29:21 22° ENE 21:32:45 10° N
USA 186 3.7 21:28:16 10° SSW 21:30:02 20° W 21:31:53 10° NW
Helios 1A 4.3 21:27:43 13° ESE 21:30:33 25° ENE 21:33:58 10° N
Cosmos 2366 rocket 4.1 21:24:49 10° S 21:30:56 61° E 21:37:10 10° NNE
Cosmos 2344 4.4 21:25:37 10° SSE 21:31:40 26° ESE 21:38:07 10° NE
Cosmos 1869 Rocket 4.0 21:28:35 10° N 21:32:49 44° ENE 21:36:19 14° SE
Cosmos 2056 Rocket 3.8 21:29:26 10° S 21:34:37 48° ESE 21:39:48 10° NNE
SL-8 Rocket 4.0 21:32:31 10° S 21:38:50 88° E 21:45:09 10° N
BREEZE-M DEB (TANK) 1.5 21:38:00 10° W 21:40:28 84° S 21:42:10 16° E
Cosmos 1339 Rocket 4.4 21:35:15 10° N 21:41:23 82° E 21:47:32 10° SSE
Cosmos 1140 Rocket 3.7 21:39:02 10° NNW 21:44:09 55° ENE 21:47:57 17° SE
ATLAS CENTAUR R/B 2.0 21:41:21 10° WSW 21:44:59 53° NW 21:48:53 10° NNE
Cosmos 1980 3.8 21:39:49 10° SSW 21:45:31 83° WNW 21:51:15 10° NNE
Cosmos 1869 3.3 21:42:44 10° S 21:46:46 86° E 21:50:49 10° N
Cosmos 405 2.9 21:43:54 10° NNW 21:47:26 89° ENE 21:50:17 15° S
Cosmos 1455 4.2 21:44:37 10° SW 21:48:06 32° WNW 21:51:38 10° N
Cosmos 1190 Rocket 4.1 21:43:33 10° NNW 21:48:51 77° WSW 21:53:39 12° SSE
Cosmos 2297 3.8 21:43:25 10° NNW 21:49:08 84° WSW 21:53:59 15° SSE
Cosmos 2098 Rocket 2.6 21:46:03 10° S 21:50:20 77° E 21:53:48 10° NNE
Cosmos 1933 4.4 21:48:41 20° SE 21:50:22 26° E 21:53:49 10° NNE
Cosmos 1624 Rocket 3.9 21:46:00 10° S 21:51:08 68° ESE 21:56:19 10° NNE
Cosmos 1515 Rocket 4.4 21:47:10 10° SSW 21:51:33 55° WNW 21:55:58 10° N
Cosmos 2369 Rocket 3.4 21:46:32 10° NNW 21:51:35 31° NE 21:55:29 15° E
ATLAS 2AS CENTAUR R/B 4.4 21:45:56 10° NW 21:52:37 31° WSW 21:58:53 10° S
BREEZE M DEB (TANK) 4.4 21:31:46 10° WSW 21:53:04 76° SSE 21:58:20 10° E
Cosmos 1441 Rocket 3.4 21:51:46 16° SSE 21:54:31 45° E 21:58:08 10° NNE
MetOp-A 4.1 21:50:32 13° SSE 21:55:22 82° ENE 22:00:46 10° NNW
Cosmos 1954 Rocket 4.0 21:55:28 10° NNW 22:00:43 74° ENE 22:04:14 21° SSE
Cosmos 2333 Rocket 3.4 21:55:53 10° SW 22:01:18 46° NW 22:06:45 10° NNE
CZ-4C R/B 3.2 22:01:07 21° SE 22:02:32 23° ESE 22:07:03 10° ENE
Cosmos 2219 Rocket 3.8 22:02:15 10° WSW 22:07:29 37° NW 22:12:43 10° NNE
Cosmos 2237 Rocket 2.8 22:06:49 10° SW 22:12:22 59° WNW 22:17:58 10° NNE
ATLAS 5 CENTAUR R/B 3.0 22:07:31 10° NW 22:12:58 47° NE 22:17:14 19° ESE
Cosmos 2278 Rocket 4.2 22:13:25 10° NW 22:17:48 23° WSW 22:22:09 10° SSW
Landsat 7 4.3 22:17:24 27° SE 22:19:35 46° ENE 22:24:09 10° N
USA 245 1.9 22:19:39 77° ENE 22:19:39 77° ENE 22:21:54 10° N
Cosmos 1633 3.7 22:17:38 10° NNE 22:20:44 27° ENE 22:21:11 26° E
Cosmos 1934 Rocket 4.5 22:18:30 25° SE 22:21:21 39° E 22:26:53 10° NNE
NOSS 3-4 (A) 4.4 22:17:08 10° NW 22:23:51 51° WSW 22:29:14 18° S
NOSS 3-4 (C) 4.4 22:17:14 10° NW 22:23:57 51° WSW 22:29:19 18° S
Cosmos 614 Rocket 4.1 22:20:54 10° NNW 22:26:08 71° WSW 22:29:13 25° S
Meteor 1-29 4.5 22:23:30 10° NE 22:25:33 22° ENE 22:25:33 22° ENE
Cosmos 405 Rocket 2.7 22:23:55 17° SSW 22:26:51 83° WNW 22:30:51 10° N
Meteor 1-4 Rocket 3.5 22:24:36 10° N 22:27:44 30° ENE 22:28:02 29° E
USA 267 4.0 22:25:38 10° ENE 22:31:05 28° SE 22:31:49 27° SE
Cosmos 1437 Rocket 2.8 22:27:28 10° N 22:31:20 60° ENE 22:32:22 43° SE
GEOS 3 Rocket 4.2 22:26:39 10° NE 22:31:35 36° ESE 22:33:21 29° SSE
ERS-1 Rocket 3.2 22:29:58 22° S 22:33:15 68° WSW 22:38:17 10° NNW
Resurs 01 Rocket 4.3 22:31:19 10° WSW 22:33:46 14° W 22:36:14 10° NW
Cosmos 1862 4.3 22:30:24 10° NNW 22:34:15 43° W 22:36:54 18° SSW
Helios 1B rocket 2.8 22:31:19 10° NNE 22:35:18 43° E 22:35:55 40° SE
Cosmos 1420 Rocket 4.1 22:33:09 24° S 22:36:09 54° ESE 22:41:21 10° NNE
Terra 2.3 22:35:47 33° ESE 22:37:25 46° ENE 22:41:59 10° N
Cosmos 1000 Rocket 4.5 22:33:45 10° N 22:39:59 84° W 22:43:59 24° S
SL-8 R/B 3.6 22:36:20 10° WSW 22:41:07 72° S 22:43:39 27° E
CZ-2C R/B 3.8 22:39:46 28° E 22:41:13 34° ENE 22:45:35 10° N
Cosmos 389 Rocket 4.3 22:39:34 10° NNE 22:41:57 19° ENE 22:41:57 19° ENE
Meteor 1-20 Rocket 4.4 22:36:48 10° N 22:42:11 55° ENE 22:44:16 35° SE
RESURS DK-1 3.0 22:38:18 10° NNW 22:42:19 45° NE 22:43:23 36° E
Cosmos 1862 Rocket 3.9 22:44:16 41° ESE 22:44:52 44° E 22:49:03 10° NNE
Cosmos 921 Rocket 3.7 22:47:33 36° E 22:47:33 36° E 22:51:16 10° NE
DMSP B5D2-2 4.0 22:42:47 10° NNE 22:48:03 71° ESE 22:50:44 30° S
SPOT 1/Viking Rocket 3.6 22:47:56 32° S 22:50:26 80° WSW 22:55:42 10° NNW
Cosmos 1821 Rocket 3.9 22:46:36 21° S 22:51:04 84° E 22:57:22 10° N
ARGOS 4.5 22:51:59 13° SSW 22:56:16 34° W 23:01:09 10° NNW
Cosmos 1943 Rocket 2.4 22:51:17 10° NNW 22:56:45 57° ENE 22:58:43 37° ESE
H-2A R/B 3.1 22:55:13 18° SSW 22:58:30 38° W 23:03:08 10° NNW
SL-16 R/B 2.9 22:58:38 10° SW 23:04:11 56° NW 23:09:47 10° NNE
Lacrosse 5 1.8 22:59:43 10° WNW 23:04:49 83° SW 23:06:08 50° SE
Cosmos 2123 Rocket 3.9 22:58:29 10° N 23:04:50 89° ENE 23:07:37 36° S
Helios 1A 4.0 23:04:20 28° SW 23:05:57 39° W 23:09:55 10° NNW
SPOT 5 3.3 23:05:31 33° SSW 23:07:12 50° W 23:11:30 10° NNW
SAR-Lupe-4 4.5 23:07:28 37° ENE 23:07:28 37° ENE 23:10:32 10° N
USA 234 3.5 23:03:19 22° E 23:07:41 67° NNE 23:14:10 10° WNW
Cosmos 1461 3.7 23:07:38 10° NNW 23:12:21 52° NE 23:13:31 42° E
Cosmos 1452 Rocket 3.9 23:12:39 13° SW 23:17:17 63° WNW 23:22:32 10° NNE
Cosmos 1733 Rocket 3.7 23:15:45 10° NNW 23:20:00 50° W 23:21:04 40° SW
CARTOSAT-1 3.8 23:22:15 54° SW 23:22:56 62° WSW 23:27:14 10° NNW
SeaSat 1 4.3 23:22:25 16° ENE 23:24:47 22° NE 23:28:32 10° N
ATLAS CENTAUR R/B 4.5 23:22:36 10° WNW 23:24:52 15° NNW 23:27:14 10° NNE
IGS 5A 3.8 23:26:00 51° SW 23:26:30 56° W 23:30:38 10° NNW
Cosmos 1606 2.8 23:28:04 70° NE 23:28:04 70° NE 23:31:37 10° NNE
Cosmos 1603 3.6 23:28:45 34° SSW 23:31:20 89° WNW 23:36:59 10° NNE
YAOGAN 11 4.2 23:31:41 58° SW 23:32:05 62° WSW 23:36:23 10° NNW
Cosmos 1943 3.2 23:32:17 55° SE 23:32:54 59° ESE 23:38:30 10° NE
Meteor 2-17 Rocket 4.5 23:30:14 36° SSW 23:32:56 80° W 23:39:06 10° N
Sich 1 Rocket 3.5 23:29:38 10° N 23:34:16 76° E 23:34:28 74° ESE
Meteor 1-11 Rocket 4.0 23:29:27 10° N 23:34:58 51° ENE 23:35:56 46° ESE
Cosmos 2369 Rocket 2.4 23:30:22 10° NW 23:36:00 60° WSW 23:37:17 48° SSW
Cosmos 1782 3.0 23:41:21 69° N 23:41:21 69° N 23:44:54 10° N
Cosmos 1605 Rocket 4.0 23:39:07 41° SSW 23:41:34 83° W 23:48:01 10° N
Cosmos 2263 4.2 23:36:05 10° NNW 23:41:41 72° WSW 23:42:42 58° S
CZ-2C R/B 2.7 23:38:13 10° NNE 23:43:31 56° E 23:43:50 55° ESE
Cosmos 1782 Rocket 3.5 23:39:39 10° N 23:44:06 76° ENE 23:44:06 76° ENE
Okean 1-7 3.7 23:45:14 44° ENE 23:45:14 44° ENE 23:48:38 10° NNE
Cosmos 2344 3.8 23:37:19 10° SW 23:44:57 78° NW 23:53:59 10° NE
Okean 2 Rocket 3.5 23:42:27 10° N 23:46:31 49° ENE 23:46:31 49° ENE
Meteor 1-27 Rocket 4.2 23:46:49 44° ESE 23:47:11 45° E 23:52:40 10° NNE
CZ-4C R/B 2.3 23:46:07 17° SW 23:50:17 74° NW 23:56:35 10° NE
Cosmos 1536 4.0 23:49:34 10° N 23:52:37 35° NE 23:52:37 35° NE
Cosmos 1174 4.4 23:56:07 54° NE 23:56:07 54° NE 23:59:07 10° NE
Cosmos 1633 4.5 23:52:41 10° NW 23:55:25 23° W 23:55:25 23° W
